Latest Coastal Weather Observations for Cape Moreton

IDQ60701

Issued at 6:13 pm EST Wednesday 8 February 2023 (issued every 10 minutes, with the page automatically refreshed every 10 minutes)

About coastal observations | Map of coastal stations | Coastal observations for QLD | Marine services | Other Formats
Station Details ID: 040043 Name: CAPE MORETON LIGHTHOUSE Lat: -27.03 Lon: 153.47 Height: 99.9 m
Data from the previous 72 hours. | See also: Recent months at Cape Moreton
Date/Time
EST
Wind Sea
Height
m
Swell Vis
km
Cloud Weather Temp
°C
Press
MSL
hPa
Rain since
9am
mm
Dir  Spd
kts
Gust
kts
Height
m
Period
s
Dir
08/06:00pm ESE 19 25 - - - - - - - 24.4 1010.5 0.0
08/05:30pm ESE 20 24 - - - - - - - 24.8 1010.1 0.0
08/05:00pm ESE 21 25 - - - - - - - 24.7 1010.1 0.0
08/04:30pm ESE 20 24 - - - - - - - 24.5 1009.9 0.0
08/04:00pm SE 18 23 - - - - - - - 24.8 1010.2 0.0
08/03:30pm SE 18 22 - - - - - - - 25.5 1010.3 0.0
08/03:00pm SE 18 22 - - - - - - - 25.2 1010.5 0.0
08/02:30pm SE 20 25 - - - - - - - 26.2 1010.7 0.0
08/02:00pm SE 20 23 - - - - - - - 25.9 1010.9 0.0
08/01:30pm SE 20 24 - - - - - - - 26.4 1011.1 0.0
08/01:00pm SE 20 24 - - - - - - - 26.2 1011.4 0.0
08/12:30pm SE 15 22 - - - - - - - 25.3 1011.8 0.0
08/12:00pm SE 18 21 - - - - - - - 25.6 1012.0 0.0
08/11:30am SE 18 23 - - - - - - - 25.4 1012.1 0.0
08/11:00am SE 18 22 - - - - - - - 26.7 1012.2 0.0
08/10:30am SE 18 23 - - - - - - - 26.7 1012.3 0.0
08/10:00am SE 17 21 - - - - - - - 25.8 1012.4 0.0
08/09:30am SE 17 21 - - - - - - - 27.4 1012.5 0.0
08/09:00am SE 18 23 - - - - - - - 26.4 1012.5 0.0
08/08:30am SE 18 23 - - - - - - - 26.2 1012.5 0.0
08/08:00am SE 19 22 - - - - - - - 26.2 1012.3 0.0
08/07:30am ESE 21 25 - - - - - - - 25.4 1012.0 0.0
08/07:00am SE 20 25 - - - - - - - 24.4 1011.9 0.0
08/06:30am SE 19 25 - - - - - - - 24.5 1012.0 0.0
08/06:00am SE 19 23 - - - - - - - 23.8 1011.8 0.0
08/05:30am SE 19 23 - - - - - - - 23.7 1011.2 0.0
08/05:00am SE 19 22 - - - - - - - 23.3 1010.9 0.0
08/04:30am ESE 19 23 - - - - - - - 23.7 1010.8 0.0
08/04:00am SE 19 22 - - - - - - - 23.5 1010.8 0.0
08/03:30am SE 20 24 - - - - - - - 23.6 1010.5 0.0
08/03:00am SE 19 23 - - - - - - - 23.8 1010.7 0.0
08/02:30am SE 20 24 - - - - - - - 23.8 1010.8 0.0
08/02:00am SE 18 21 - - - - - - - 23.9 1011.1 0.0
08/01:30am SE 17 21 - - - - - - - 23.8 1011.3 0.0
08/01:00am SE 17 22 - - - - - - - 24.0 1011.5 0.0
08/12:30am ESE 18 21 - - - - - - - 23.9 1011.8 0.0
08/12:00am SE 18 22 - - - - - - - 23.9 1012.2 0.0
 
Date/Time
EST
Wind Sea
Height
m
Swell Vis
km
Cloud Weather Temp
°C
Press
MSL
hPa
Rain since
9am
mm
Dir  Spd
kts
Gust
kts
Height
m
Period
s
Dir
07/11:30pm ESE 18 22 - - - - - - - 24.0 1012.4 0.0
07/11:00pm ESE 18 21 - - - - - - - 23.9 1012.5 0.0
07/10:30pm SE 18 22 - - - - - - - 24.0 1012.9 0.0
07/10:00pm SE 19 22 - - - - - - - 23.9 1013.0 0.0
07/09:30pm ESE 18 22 - - - - - - - 23.7 1013.1 0.0
07/09:00pm ESE 17 21 - - - - - - - 23.8 1013.1 0.0
07/08:30pm ESE 17 23 - - - - - - - 23.9 1013.0 0.0
07/08:00pm ESE 20 24 - - - - - - - 23.8 1012.8 0.0
07/07:30pm ESE 21 26 - - - - - - - 23.9 1012.4 0.0
07/07:00pm ESE 20 24 - - - - - - - 24.0 1012.3 0.0
07/06:30pm ESE 19 24 - - - - - - - 24.2 1012.2 0.0
07/06:00pm ESE 20 23 - - - - - - - 24.2 1011.9 0.0
07/05:30pm ESE 18 22 - - - - - - - 24.7 1011.6 0.0
07/05:00pm ESE 18 22 - - - - - - - 24.8 1011.6 0.0
07/04:30pm SE 18 22 - - - - - - - 25.5 1011.7 0.0
07/04:00pm ESE 16 21 - - - - - - - 25.1 1011.9 0.0
07/03:30pm ESE 17 22 - - - - - - - 26.7 1012.1 0.0
07/03:00pm SE 18 22 - - - - - - - 25.7 1012.4 0.0
07/02:30pm SE 17 22 - - - - - - - 26.4 1012.4 0.0
07/02:00pm SE 18 22 - - - - - - - 25.8 1012.6 0.0
07/01:30pm SE 17 21 - - - - - - - 26.2 1012.8 0.0
07/01:00pm SE 17 21 - - - - - - - 27.3 1013.0 0.0
07/12:30pm SE 18 22 - - - - - - - 27.4 1013.0 0.0
07/12:00pm SE 17 21 - - - - - - - 26.9 1013.1 0.0
07/11:30am SE 18 23 - - - - - - - 27.2 1013.3 0.0
07/11:00am ESE 18 20 - - - - - - - 27.1 1013.7 0.0
07/10:30am SE 16 21 - - - - - - - 27.1 1013.8 0.0
07/10:00am SE 16 19 - - - - - - - 27.0 1014.1 0.0
07/09:30am SE 15 18 - - - - - - - 26.7 1013.9 0.0
07/09:00am SE 14 18 - - - - - - - 25.5 1013.9 0.0
07/08:30am ESE 17 20 - - - - - - - 26.8 1013.4 0.0
07/08:00am SE 17 21 - - - - - - - 26.2 1013.6 0.0
07/07:30am SE 18 23 - - - - - - - 25.2 1013.2 0.0
07/07:00am SE 18 21 - - - - - - - 25.1 1013.2 0.0
07/06:30am ESE 18 21 - - - - - - - 24.7 1012.9 0.0
07/06:00am ESE 18 23 - - - - - - - 23.4 1012.6 0.0
07/05:30am ESE 17 21 - - - - - - - 23.2 1012.6 0.0
07/05:00am ESE 17 21 - - - - - - - 23.2 1012.5 0.0
07/04:30am ESE 17 21 - - - - - - - 23.2 1012.6 0.0
07/04:00am ESE 17 20 - - - - - - - 23.4 1012.6 0.0
07/03:30am SE 15 19 - - - - - - - 23.5 1012.6 0.0
07/03:00am ESE 15 17 - - - - - - - 23.5 1012.7 0.0
07/02:30am ESE 16 19 - - - - - - - 23.5 1012.9 0.0
07/02:00am SE 16 19 - - - - - - - 23.3 1012.7 0.0
07/01:30am ESE 17 19 - - - - - - - 23.5 1012.9 0.0
07/01:00am SE 17 21 - - - - - - - 23.6 1013.2 0.0
07/12:30am ESE 17 20 - - - - - - - 23.5 1013.5 0.0
07/12:00am SE 17 20 - - - - - - - 23.6 1013.8 0.0
 
Date/Time
EST
Wind Sea
Height
m
Swell Vis
km
Cloud Weather Temp
°C
Press
MSL
hPa
Rain since
9am
mm
Dir  Spd
kts
Gust
kts
Height
m
Period
s
Dir
06/11:30pm ESE 16 19 - - - - - - - 23.6 1014.0 0.0
06/11:00pm ESE 17 22 - - - - - - - 23.8 1014.3 0.0
06/10:30pm ESE 16 19 - - - - - - - 23.8 1014.4 0.0
06/10:00pm ESE 18 21 - - - - - - - 23.9 1014.7 0.0
06/09:30pm ESE 17 20 - - - - - - - 23.7 1014.7 0.0
06/09:00pm ESE 18 23 - - - - - - - 23.9 1014.6 0.0
06/08:30pm ESE 19 24 - - - - - - - 23.9 1014.5 0.0
06/08:00pm ESE 20 25 - - - - - - - 24.0 1014.3 0.0
06/07:30pm ESE 19 24 - - - - - - - 24.1 1014.2 0.0
06/07:00pm ESE 18 22 - - - - - - - 24.1 1014.1 0.0
06/06:30pm ESE 19 24 - - - - - - - 24.3 1013.9 0.0
06/06:00pm ESE 21 24 - - - - - - - 24.7 1013.7 0.0
06/05:30pm ESE 20 24 - - - - - - - 25.0 1013.6 0.0
06/05:00pm ESE 21 25 - - - - - - - 25.5 1013.4 0.0
06/04:30pm ESE 20 24 - - - - - - - 25.5 1013.6 0.0
06/04:00pm ESE 20 25 - - - - - - - 26.0 1013.4 0.0
06/03:30pm ESE 20 23 - - - - - - - 26.4 1013.5 0.0
06/03:00pm ESE 20 23 - - - - - - - 26.7 1013.6 0.0
06/02:30pm ESE 18 22 - - - - - - - 26.9 1013.7 0.0
06/02:00pm SE 17 21 - - - - - - - 27.2 1014.3 0.0
06/01:30pm SE 20 24 - - - - - - - 27.0 1014.4 0.0
06/01:00pm SE 19 24 - - - - - - - 27.5 1014.8 0.0
06/12:30pm SE 20 25 - - - - - - - 27.4 1015.1 0.0
06/12:00pm SE 21 24 - - - - - - - 27.5 1015.4 0.0
06/11:30am SE 21 24 - - - - - - - 27.5 1015.6 0.0
06/11:00am SE 20 24 - - - - - - - 27.9 1015.7 0.0
06/10:30am SE 20 25 - - - - - - - 27.6 1015.7 0.0
06/10:00am SE 19 23 - - - - - - - 27.3 1015.8 0.0
06/09:30am SE 21 25 - - - - - - - 27.3 1015.7 0.0
06/09:00am SE 20 24 - - - - - - - 27.0 1015.6 0.0
06/08:30am SE 21 26 - - - - - - - 26.8 1015.5 0.0
06/08:00am SE 19 24 - - - - - - - 26.6 1015.5 0.0
06/07:30am SE 19 23 - - - - - - - 25.7 1015.3 0.0
06/07:00am SE 19 24 - - - - - - - 26.1 1015.0 0.0
06/06:30am ESE 20 23 - - - - - - - 25.3 1014.8 0.0
06/06:00am SE 19 22 - - - - - - - 24.8 1014.6 0.0
06/05:30am SE 19 23 - - - - - - - 24.4 1014.2 0.0
06/05:00am SE 18 22 - - - - - - - 24.5 1013.8 0.0
06/04:30am SE 18 23 - - - - - - - 24.5 1013.3 0.0
06/04:00am SE 18 21 - - - - - - - 24.6 1013.0 0.0
06/03:30am SE 17 21 - - - - - - - 24.6 1013.1 0.0
06/03:00am SE 17 21 - - - - - - - 24.4 1013.0 0.0
06/02:30am ESE 16 19 - - - - - - - 24.4 1013.0 0.0
06/02:00am SE 17 21 - - - - - - - 24.3 1013.1 0.0
06/01:30am SE 17 22 - - - - - - - 24.3 1013.1 0.0
06/01:00am ESE 17 21 - - - - - - - 24.5 1013.3 0.0
06/12:30am ESE 16 21 - - - - - - - 24.5 1013.6 0.0
06/12:00am ESE 17 21 - - - - - - - 24.7 1014.1 0.0
 
Date/Time
EST
Wind Sea
Height
m
Swell Vis
km
Cloud Weather Temp
°C
Press
MSL
hPa
Rain since
9am
mm
Dir  Spd
kts
Gust
kts
Height
m
Period
s
Dir
05/11:30pm ESE 18 22 - - - - - - - 24.5 1014.0 0.0
05/11:00pm ESE 19 22 - - - - - - - 24.9 1014.2 0.0
05/10:30pm ESE 20 23 - - - - - - - 24.9 1014.3 0.0
05/10:00pm ESE 20 24 - - - - - - - 24.6 1014.4 0.0
05/09:30pm ESE 21 25 - - - - - - - 24.9 1014.2 0.0
05/09:00pm ESE 22 27 - - - - - - - 25.0 1014.1 0.0
05/08:30pm ESE 22 26 - - - - - - - 25.0 1014.1 0.0
05/08:00pm ESE 23 28 - - - - - - - 24.8 1013.7 0.0
05/07:30pm ESE 22 27 - - - - - - - 25.0 1013.5 0.0
05/07:00pm ESE 22 25 - - - - - - - 25.0 1013.3 0.0
05/06:30pm ESE 22 25 - - - - - - - 25.0 1013.0 0.0

Other formats

Comma delimited format used in spreadsheet applications
http://www.bom.gov.au/fwo/IDQ60701/IDQ60701.94594.axf

JavaScript Object Notation format (JSON) in row-major order
http://www.bom.gov.au/fwo/IDQ60701/IDQ60701.94594.json

Data quality

Most of these data are generated automatically and are frequently updated. Quality checks on data are not normally performed. It is possible for incorrect values to appear. Refer to information at About Latest Weather Observations and please check the disclaimer before using these data.